Location: Bismarck
(46.7731°N, 100.8200°W)
Time: 20:35:56
(UTC-06:00)

ISS - Visible Passes

Search period start: 22 February 2017 00:00
Search period end: 04 March 2017 00:00
Orbit: 399 x 408 km, 51.6° (Epoch: 23 February)

Date Brightness Start Highest point End Pass type
(mag) Time Alt. Az. Time Alt. Az. Time Alt. Az.
01 Mar -0.6 06:39:12 10° S 06:41:34 18° SE 06:43:57 10° E visible
02 Mar -0.1 05:48:31 10° SE 05:49:14 11° SE 05:49:56 10° ESE visible
03 Mar -1.9 06:29:32 10° SSW 06:32:35 36° SE 06:35:40 10° ENE visible
